Tracking 20241 objects as of 25-Jan-2020
HD Live streaming from Space Station
objects crossing your sky now

COSMOS 1420

Track COSMOS 1420 now!
10-day predictions
COSMOS 1420 is classified as:


NORAD ID: 13648
Int'l Code: 1982-109A
Perigee: 772.5 km
Apogee: 799.6 km
Inclination: 74.0 °
Period: 100.4 minutes
Semi major axis: 7157 km
RCS: 2.7828 m2 (large)
Launch date: November 11, 1982
Source: Commonwealth of Independent States (former USSR) (CIS)
Launch site: PLESETSK MISSILE AND SPACE COMPLEX (PKMTR)
aabbcc
Your satellite tracking list
Your tracking list is empty




NASA's NSSDC Master Catalog

Two Line Element Set (TLE):
1 13648U 82109A   20025.58114550 -.00000005 +00000-0 +74800-5 0  9990
2 13648 073.9946 146.1612 0018907 076.4022 283.9234 14.33845618944909
Source of the keplerian elements: AFSPC